Regional Weather Roundup
Issued by NWS

Home | Current Version | Previous Version | Graphics & Text | Print | Product List | Glossary Off
Versions: 1 2 3 4 5 6 7 8 9 10 11 12 13 14 15 16 17 18 19 20 21 22 23 24 25 26 27 28 29 30 31 32 33 34 35 36 37 38 39 40 41 42 43 44 45 46 47 48 49 50

000
ASUS43 KMKX 270321
RWRWI

WISCONSIN REGIONAL WEATHER ROUNDUP
NATIONAL WEATHER SERVICE MILWAUKEE/SULLIVAN WI
1000 PM CDT MON JUN 26 2017

NOTE: "FAIR" INDICATES FEW OR NO CLOUDS BELOW 12,000 FEET WITH NO
SIGNIFICANT WEATHER AND/OR OBSTRUCTIONS TO VISIBILITY.

WIZ001-002-006>008-014>016-023>028-270400-
NORTHWEST WISCONSIN

CITY           SKY/WX    TMP DP  RH WIND       PRES   REMARKS
SUPERIOR ARPT  NOT AVBL
ASHLAND        CLOUDY    51  47  86 SW7       30.05R
HAYWARD        CLOUDY    56  50  80 S3        30.08R
SIREN          CLEAR     54  50  89 CALM      30.08S
CUMBERLAND     PTCLDY    52  48  87 CALM      30.09S
RICE LAKE      MOCLDY    54  52  94 CALM      30.10R
CHETEK           N/A     51  51 100 CALM      30.09S FOG
LADYSMITH      CLEAR     55  49  81 W5        30.09R
EAU CLAIRE     CLEAR     54  47  77 SW3       30.08S
MENOMONIE      CLEAR     57  48  73 SW5       30.10R
NEW RICHMOND   CLEAR     56  49  75 CALM      30.10S
OSCEOLA        CLEAR     55  48  75 CALM      30.12R
$$

WIZ003>005-009-010-017-018-270400-
NORTH CENTRAL WISCONSIN

CITY           SKY/WX    TMP DP  RH WIND       PRES   REMARKS
MANITOWISH WTR CLEAR     48  48 100 W5        30.05R
ARBOR VITAE    CLEAR     52  47  83 CALM      30.05R
WOODRUFF       CLEAR     52  47  83 CALM      30.05R
RHINELANDER    CLEAR     48  48 100 W6        30.05R
EAGLE RIVER    CLEAR     48  46  95 CALM      30.04R
LAND O LAKES   CLEAR     47  46  96 CALM      30.05S
PHILLIPS       PTCLDY    50  50  99 CALM      30.06R
TOMAHAWK       NOT AVBL
MEDFORD        CLEAR     51  47  84 W3        30.07S
MERRILL        CLEAR     52  47  82 CALM      30.07R
$$

WIZ029-030-035-036-043>047-270400-
CENTRAL WISCONSIN

CITY           SKY/WX    TMP DP  RH WIND       PRES   REMARKS
WAUSAU         CLEAR     54  47  77 CALM      30.04S
MOSINEE        CLEAR     54  46  76 W5        30.07R
MARSHFIELD     PTCLDY    53  45  74 W5        30.07R
STEVENS POINT  CLEAR     51  47  84 W3        30.07R
WAUPACA        CLEAR     54  48  81 SW5       30.06R
WAUTOMA        CLEAR     51  48  89 CALM      30.08R
WISC RAPIDS    CLEAR     52  47  83 CALM      30.08R
CAMP DOUGLAS   PTCLDY    50  46  87 W6        30.08R
$$

WIZ011>013-019>022-031-037>040-048>050-270400-
NORTHEAST WISCONSIN

CITY           SKY/WX    TMP DP  RH WIND       PRES   REMARKS
ANTIGO         PTCLDY    53  47  79 NW8       30.05S
SHAWANO        PTCLDY    56  50  80 CALM      30.04R
OCONTO         CLEAR     49  49  99 CALM      30.03R
STURGEON BAY     N/A     53  51  93 CALM        N/A
GREEN BAY      CLEAR     54  53  97 SW6       30.04R
MANITOWOC      CLEAR     54  50  86 W5        30.05R
APPLETON       PTCLDY    54  46  76 VRB5      30.04S
CLINTONVILLE   PTCLDY    52  46  82 SW3       30.05R
OSHKOSH        CLEAR     51  48  89 CALM      30.06R
$$

WIZ032>034-041-042-053>061-270400-
SOUTHWEST WISCONSIN

CITY           SKY/WX    TMP DP  RH WIND       PRES   REMARKS
LA CROSSE      CLEAR     63  49  60 CALM      30.10R
SPARTA         CLEAR     51  48  89 CALM      30.11R
VIROQUA        CLEAR     57  47  68 NW3       30.11R
BOSCOBEL       MOCLDY    55  49  80 CALM      30.10R
PRAIRIE DU CHI CLEAR     56  47  70 CALM      30.11R
PLATTEVILLE    CLEAR     58  46  63 W3        30.12R
$$

WIZ056-057-062-063-064-067-068-270400-
SOUTH CENTRAL WISCONSIN

CITY           SKY/WX    TMP DP  RH WIND       PRES   REMARKS
REEDSBURG      CLOUDY    56  49  77 CALM      30.09R
BARABOO/DELLS  PTCLDY    52  48  86 CALM      30.09R
LONE ROCK      MOCLDY    56  50  80 CALM      30.10R
MINERAL POINT  CLEAR     59  45  58 CALM      30.11R
MADISON        PTCLDY    53  47  79 W3        30.08R
MIDDLETON      CLEAR     52  48  89 CALM      30.10R
WATERTOWN      NOT AVBL
MONROE         CLEAR     59  43  55 NW3       30.10R
JANESVILLE     CLEAR     55  45  67 CALM      30.09R
$$

WIZ051-052-058>065-066-070>072-270400-
SOUTHEAST WISCONSIN

CITY           SKY/WX    TMP DP  RH WIND       PRES   REMARKS
MILWAUKEE      MOCLDY    60  48  64 NW8       30.07R
WAUKESHA       NOT AVBL
MILWAUKEE/TIMM PTCLDY    55  45  67 NW7       30.08R
RACINE         PTCLDY    59  45  59 NW7       30.08R
KENOSHA        CLOUDY    59  46  62 NW5       30.07R
FOND DU LAC    CLEAR     53  47  79 W3        30.07R
SHEBOYGAN      CLEAR     53  51  93 W3        30.06R
WEST BEND      CLEAR     54  50  87 CALM      30.07R
JUNEAU         CLEAR     53  46  76 CALM      30.09R
$$

LSZ147-162-270400-
LAKE SUPERIOR

STATION/POSITION TIME  TEMP    WIND        PRES    WAVE
                       AIR SEA DIR/SP/G            HT/PER
                 (UTC) (F)     (DEG/KT/KT) (MB)    (FT/S)
W MID LAKE BUOY  0250   46 39  260/ 10/ 12 1015.9S   1/ 3
DEVILS ISLAND    0300   56     270/ 14/ 14 1016.8R
PORT WING        0100   57     220/  8/ 19 1017.3
SAXON HARBOR     0240   58     190/  5/  7 1016.6S
$$

LMZ867-665-643>646-270400-
LAKE MICHIGAN

STATION/POSITION TIME  TEMP    WIND        PRES    WAVE
                       AIR SEA DIR/SP/G            HT/PER
                 (UTC) (F)     (DEG/KT/KT) (MB)    (FT/S)
CHAMBERS ISLAND  0240   53     240/  2/  4 1015.9R
S GREEN BAY BUOY 0300   60     260/  8/ 10 1016.5
N MID LAKE BUOY  0250   57 56  260/  2/  4 1016.4R   1/ 3
NORTHPORT PIER   0240   55     270/  3/  4 1015.9R
KEWAUNEE LAKESHO 0254   54     290/  5/  5 1016.6R
SHEBOYGAN LAKESH 0300   56     280/  7/  8 1017.7R
PORT WASHINGTON  0240   58     320/  1/  4 1018.6R
ATWATER BUOY     0209   58 57  310/  8/ 10 1017.7R
MILWAUKEE LAKESH 0300   59     330/  7/  8   N/A
S MID LAKE BUOY  0250   59 61  340/ 17/ 21 1017.2R   2/ 4
KENOSHA   LAKESH 0300   61     330/ 10/ 13 1017.9
$$

TC  - TEMPERATURE IN CELSIUS
VSB - VISIBILITY IN STATUTE MILES
WCI - WIND CHILL INDEX
HX  - HEAT INDEX




USA.gov is the U.S. government's official web portal to all federal, state and local government web resources and services.